Regional Weather Roundup
Issued by NWS

Home | Current Version | Previous Version | Text Only | Print | Product List | Glossary On
Versions: 1 2 3 4 5 6 7 8 9 10 11 12 13 14 15 16 17 18 19 20 21 22 23 24 25 26 27 28 29 30 31 32 33 34 35 36 37 38 39 40 41 42 43 44 45 46 47 48 49 50
000
ASUS43 KMKX 191921
RWRWI

WISCONSIN REGIONAL WEATHER ROUNDUP
NATIONAL WEATHER SERVICE MILWAUKEE/SULLIVAN WI
200 PM CDT TUE SEP 19 2017

NOTE: "FAIR" INDICATES FEW OR NO CLOUDS BELOW 12,000 FEET WITH NO
SIGNIFICANT WEATHER AND/OR OBSTRUCTIONS TO VISIBILITY.

WIZ001-002-006>008-014>016-023>028-192000-
NORTHWEST WISCONSIN

CITY           SKY/WX    TMP DP  RH WIND       PRES   REMARKS
SUPERIOR ARPT  PTSUNNY   64  58  79 NE12G18   29.89F
ASHLAND        MOSUNNY   75  60  59 N6        29.91F
HAYWARD        SUNNY     74  59  59 S15G21    29.91F
SIREN          PTSUNNY   74  60  61 S10G17    29.87F
CUMBERLAND     CLOUDY    72  59  64 SE9       29.89F
RICE LAKE      MOSUNNY   76  60  58 SE14      29.90F
CHETEK         MOSUNNY   75  63  66 SE14G20   29.90F
LADYSMITH      SUNNY     76  58  54 SE10      29.93F
EAU CLAIRE     MOSUNNY   76  61  59 SE12      29.89F
MENOMONIE      MOSUNNY   75  62  62 SE12      29.88F
NEW RICHMOND   MOSUNNY   74  60  60 SE10G16   29.86F
OSCEOLA        MOSUNNY   74  62  64 SE13      29.87F
$$

WIZ003>005-009-010-017-018-192000-
NORTH CENTRAL WISCONSIN

CITY           SKY/WX    TMP DP  RH WIND       PRES   REMARKS
MANITOWISH WTR MOSUNNY   73  56  56 SE9       29.97F
ARBOR VITAE    SUNNY     76  58  54 SE12G17   29.96F
WOODRUFF       SUNNY     76  58  54 SE12G17   29.96F
RHINELANDER    MOSUNNY   74  56  53 S10       29.98F
EAGLE RIVER    SUNNY     73  51  46 SE7       29.98F
LAND O LAKES   SUNNY     73  53  48 SE8G16    30.00F
PHILLIPS       MOSUNNY   74  57  56 SE10      29.95F
TOMAHAWK         N/A     72  54  52 SE6       29.97F
MEDFORD        SUNNY     73  55  51 SE10G17   29.95F
MERRILL          N/A     75  55  50 SE9       29.98F
$$

WIZ029-030-035-036-043>047-192000-
CENTRAL WISCONSIN

CITY           SKY/WX    TMP DP  RH WIND       PRES   REMARKS
WAUSAU         SUNNY     74  54  49 S8G18     29.95F
MOSINEE        MOSUNNY   75  55  50 SE8       29.97F
MARSHFIELD     SUNNY     76  53  44 SE12      29.95F
STEVENS POINT  SUNNY     74  52  46 SE8       29.96F
WAUPACA        SUNNY     80  51  36 E9        29.96F
WAUTOMA        SUNNY     79  53  40 VRB7      29.95F
WISC RAPIDS    SUNNY     79  52  38 SE9       29.96F
CAMP DOUGLAS   SUNNY     79  57  47 SE10G21   29.93F HX  80
$$

WIZ011>013-019>022-031-037>040-048>050-192000-
NORTHEAST WISCONSIN

CITY           SKY/WX    TMP DP  RH WIND       PRES   REMARKS
ANTIGO         SUNNY     71  58  64 SE13      29.99F
SHAWANO        PTSUNNY   75  62  63 E7        29.98F
OCONTO         MOSUNNY   72  59  65 E6        29.99F
STURGEON BAY   SUNNY     71  57  61 VRB6      30.00F
GREEN BAY      MOSUNNY   74  61  63 E10       29.98F
MANITOWOC      SUNNY     68  59  73 VRB7      30.00F
APPLETON       PTSUNNY   73  57  56 E5        29.96F
CLINTONVILLE   MOSUNNY   73  59  60 E7        29.98F
OSHKOSH        SUNNY     74  62  66 E9        29.96F
$$

WIZ032>034-041-042-053>061-192000-
SOUTHWEST WISCONSIN

CITY           SKY/WX    TMP DP  RH WIND       PRES   REMARKS
LA CROSSE      PTSUNNY   80  64  58 SE14      29.89F HX  82
SPARTA         MOSUNNY   77  60  55 SE10      29.93F
VIROQUA        MOSUNNY   77  64  62 SE9G17    29.93F
BOSCOBEL       MOSUNNY   82  62  50 VRB6G18   29.91F HX  83
PRAIRIE DU CHI MOSUNNY   79  60  50 E8        29.89F HX  80
PLATTEVILLE    SUNNY     80  64  58 SE9       29.93F HX  81
$$

WIZ056-057-062-063-064-067-068-192000-
SOUTH CENTRAL WISCONSIN

CITY           SKY/WX    TMP DP  RH WIND       PRES   REMARKS
REEDSBURG      SUNNY     78  58  50 E7        29.93F HX  80
BARABOO/DELLS  SUNNY     78  54  42 SE10      29.94F
LONE ROCK      MOSUNNY   78  63  59 SE7       29.92F HX  80
MINERAL POINT  PTSUNNY   81  64  57 SE12      29.94F HX  82
MADISON        MOSUNNY   79  54  41 S10       29.94F
MIDDLETON      SUNNY     79  56  45 E8        29.94F HX  80
WATERTOWN      SUNNY     79  58  48 E6        29.94F HX  80
MONROE         SUNNY     79  61  53 E7        29.95F HX  80
JANESVILLE     MOSUNNY   81  63  54 E8        29.93F HX  82
$$

WIZ051-052-058>065-066-070>072-192000-
SOUTHEAST WISCONSIN

CITY           SKY/WX    TMP DP  RH WIND       PRES   REMARKS
MILWAUKEE      CLOUDY    70  66  87 E7        29.97F FOG
WAUKESHA       PTSUNNY   73  63  68 E12       29.98S
MILWAUKEE/TIMM CLOUDY    68  61  77 E5        29.99S HAZE
RACINE         CLOUDY    70  67  90 E10       29.98F FOG
BURLINGTON     SUNNY     77  65  66 E7        29.94F
KENOSHA        PTSUNNY   75  64  68 E10       29.96F
FOND DU LAC    SUNNY     77  55  46 SE7       29.96F
SHEBOYGAN      MOSUNNY   73  64  73 E9        29.98F
WEST BEND        N/A     73  63  68 E9        29.97F
JUNEAU         SUNNY     77  55  47 CALM      29.96F
$$

LSZ147-162-192000-
LAKE SUPERIOR

STATION/POSITION TIME  TEMP    WIND        PRES    WAVE
                       AIR SEA DIR/SP/G            HT/PER
                 (UTC) (F)     (DEG/KT/KT) (MB)    (FT/S)
W MID LAKE BUOY  1850   56 55   10/  8/ 10 1014.4F   1/ 3
DEVILS ISLAND    1900   59      50/ 13/ 13 1013.7F
SAXON HARBOR     1840   65      30/  3/  5 1013.2F
$$

LMZ867-665-643>646-192000-
LAKE MICHIGAN

STATION/POSITION TIME  TEMP    WIND        PRES    WAVE
                       AIR SEA DIR/SP/G            HT/PER
                 (UTC) (F)     (DEG/KT/KT) (MB)    (FT/S)
S GREEN BAY BUOY 1900   69 68  110/  6/  6 1015.3
N MID LAKE BUOY  1850   64 65   90/ 10/ 10 1017.0F   1/ 3
NORTHPORT PIER   1840   66     100/  7/  8 1016.3F
KEWAUNEE LAKESHO 1900   66      60/  2/  4 1015.2
SHEBOYGAN LAKESH 1900   65      70/  8/  8 1015.1F
PORT WASHINGTON  1840   69      70/  5/  7 1015.9F
ATWATER BUOY     1809   66 68   80/  8/ 10 1015.0
MILWAUKEE LAKESH 1900   66      60/  5/  6   N/A
S MID LAKE BUOY  1850   67 69   60/  6/  8 1014.7F   1/ 4
KENOSHA   LAKESH 1900   70      90/  8/  9 1014.2
$$

TC  - TEMPERATURE IN CELSIUS
VSB - VISIBILITY IN STATUTE MILES
WCI - WIND CHILL INDEX
HX  - HEAT INDEX





USA.gov is the U.S. government's official web portal to all federal, state and local government web resources and services.